San Antonio Stinson, TX

7:25 PM CDT on September 25, 2017 (GMT -0500)
Stinson Municipal

Weather History for KSSF - February, 2015

Change the Weather History Date:

Friday, February 6, 2015

  Actual Average Record
Temperature  
Mean Temperature 50 °F -  
Max Temperature 55 °F 62 °F 82 °F (1999)
Min Temperature 44 °F 44 °F 30 °F (2014)
Degree Days  
Heating Degree Days 16    
Moisture  
Dew Point 38 °F    
Average Humidity 70    
Maximum Humidity 86    
Minimum Humidity 57    
Precipitation  
Precipitation 0.00 in - - ()
Sea Level Pressure  
Sea Level Pressure 30.35 in    
Wind  
Wind Speed 2 mph (SSW)    
Max Wind Speed 7 mph    
Max Gust Speed -    
Visibility 10 miles    
Events      
Averages and records for this station are not official NWS values.
T = Trace of Precipitation, MM = Missing Value Source: NWS Daily Summary

Daily Weather History Graph

Daily Weather History Graph

Search for Another Location

Airport or City:

Trip Planner

Search our weather history database for the weather conditions in past years. The results will help you decide how hot, cold, wet, or windy it might be!

Date:

Astronomy

Feb. 06, 2015 Rise Set
Actual Time 7:20 AM CST 6:16 PM CST
Civil Twilight 6:55 AM CST 6:40 PM CST
Nautical Twilight 6:27 AM CST 7:09 PM CST
Astronomical Twilight 5:59 AM CST 7:37 PM CST
Moon 8:51 PM CST (2/6) 8:40 AM CST (2/6)
Length of Visible Light 11h 45m
Length of Day
10h 56m
Waning Gibbous, 93% of the Moon is Illuminated
Feb 6
Waning Gibbous
Feb 11
Last Quarter
Feb 18
New
Feb 25
First Quarter
Mar 5
Full

Hourly Weather History & Observations

Time (CST) Temp. Windchill Dew Point Humidity Pressure Visibility Wind Dir Wind Speed Gust Speed Precip Events Conditions
12:53 AM 44.1 °F - 34.0 °F 68% 30.42 in 10.0 mi Calm Calm - N/A   Overcast
1:53 AM 44.1 °F - 34.0 °F 68% 30.40 in 10.0 mi Calm Calm - N/A   Overcast
2:53 AM 44.1 °F - 34.0 °F 68% 30.40 in 10.0 mi Calm Calm - N/A   Overcast
3:53 AM 44.1 °F - 34.0 °F 68% 30.39 in 10.0 mi Calm Calm - N/A   Overcast
4:53 AM 44.1 °F - 35.1 °F 71% 30.39 in 10.0 mi Calm Calm - N/A   Overcast
5:53 AM 44.1 °F - 35.1 °F 71% 30.39 in 10.0 mi Calm Calm - N/A   Overcast
6:53 AM 44.1 °F - 36.0 °F 73% 30.40 in 10.0 mi Calm Calm - N/A   Overcast
7:53 AM 44.1 °F 42.5 °F 36.0 °F 73% 30.41 in 10.0 mi East 3.5 mph - N/A   Overcast
8:53 AM 45.0 °F 41.8 °F 37.0 °F 74% 30.43 in 10.0 mi East 5.8 mph - N/A   Overcast
9:53 AM 46.0 °F 43.9 °F 36.0 °F 68% 30.43 in 10.0 mi East 4.6 mph - N/A   Overcast
10:53 AM 46.9 °F - 36.0 °F 66% 30.43 in 10.0 mi East 3.5 mph - N/A   Overcast
11:53 AM 50.0 °F - 37.0 °F 61% 30.41 in 10.0 mi ESE 3.5 mph - N/A   Overcast
12:53 PM 51.1 °F - 39.0 °F 63% 30.38 in 10.0 mi Calm Calm - N/A   Overcast
1:25 PM 52.0 °F - 39.0 °F 61% 30.34 in 10.0 mi SW 3.5 mph - N/A   Overcast
1:38 PM 52.0 °F - 39.0 °F 61% 30.34 in 10.0 mi SSW 3.5 mph - N/A   Overcast
1:53 PM 53.1 °F - 39.9 °F 61% 30.34 in 10.0 mi Variable 4.6 mph - N/A   Overcast
2:53 PM 55.0 °F - 39.9 °F 57% 30.30 in 10.0 mi WSW 6.9 mph - N/A   Overcast
3:53 PM 55.9 °F - 42.1 °F 60% 30.28 in 10.0 mi West 6.9 mph - N/A   Overcast
4:53 PM 55.9 °F - 42.1 °F 60% 30.27 in 10.0 mi SW 5.8 mph - N/A   Mostly Cloudy
5:53 PM 54.0 °F - 42.1 °F 64% 30.27 in 10.0 mi SW 5.8 mph - N/A   Clear
6:53 PM 51.1 °F - 42.1 °F 71% 30.27 in 10.0 mi SSW 3.5 mph - N/A   Clear
7:53 PM 45.0 °F 43.5 °F 41.0 °F 86% 30.27 in 7.0 mi South 3.5 mph - N/A   Clear
8:53 PM 46.0 °F - 41.0 °F 83% 30.27 in 10.0 mi Calm Calm - N/A   Clear
9:53 PM 45.0 °F 43.5 °F 41.0 °F 86% 30.27 in 10.0 mi SW 3.5 mph - N/A   Mostly Cloudy
10:53 PM 46.9 °F - 42.1 °F 83% 30.27 in 10.0 mi SW 5.8 mph - N/A   Overcast
11:53 PM 48.0 °F - 43.0 °F 83% 30.25 in 10.0 mi SW 3.5 mph - N/A   Overcast